Weather in Okurcalar

Turkey     36°39′37″N   31°41′03″E
temp.,
°C
wind,
m/s
gust,
m/s
humid.,
%
clouds,
%
prec.,
mm/h
press.,
hPa
HPBL,
m
19 april, mon
mon1900:00+20ne2235100 0.0 101614
03:00+20ne2230100 0.0 101412
06:00+20n2231100 0.0 101312
09:00+24n1131100 0.0 1013129
12:00+26se1228100 0.0 1012288
15:00+27sw1225100 0.0 1011583
18:00+25sw2240100 0.0 100926
21:00+21ne2242100 0.0 101014
20 april, tue
tue2000:00+19w1153100 0.1 100911
03:00+18ese3456100 0.1 100870
06:00+16se3581100 0.1 1009181
09:00+18se51070100 0.2 1010644
12:00+20sse5937100 0.0 1011839
15:00+19s4650100 0.0 1012686
18:00+16sse457092 0.0 1012491
21:00+12ese34820 0.0 101380
21 april, wed
wed2100:00+12ene11630 0.0 101313
03:00+11ne11560 0.0 101310
06:00+11ene22460 0.0 101412
09:00+16sw21520 0.0 1016442
12:00+19ssw32550 0.0 10161043
15:00+19ssw43604 0.0 10161077
18:00+17ssw226546 0.0 1016612
21:00+13e11850 0.0 101811
22 april, thu
thu2200:00+12e22865 0.0 101716
03:00+12ene11853 0.0 101711
06:00+11ne11830 0.0 101710
09:00+16ssw116364 0.0 1018431
12:00+20sw32540 0.0 10181010
15:00+20sw32530 0.0 1017993
18:00+18wsw22610 0.0 1017429
21:00+14nw11780 0.0 101810
23 april, fri
fri2300:00+13ene11744 0.0 101810
03:00+13ne22614 0.0 101711
06:00+13ne114816 0.0 101710
09:00+19ssw214255 0.0 1018307
12:00+22ssw32455 0.0 1018729
15:00+22sw32475 0.0 1018762
18:00+20wsw225422 0.0 1017287
21:00+16nnw11705 0.0 101711